Defiance, OH

9:51 PM EST on February 24, 2017 (GMT -0500)
Defiance Memorial

Weather History for KDFI - October, 2012

Change the Weather History Date:

Tuesday, October 9, 2012

  Actual Average Record
Temperature  
Mean Temperature 50 °F -  
Max Temperature 62 °F 66 °F 89 °F (1949)
Min Temperature 37 °F 43 °F 27 °F (1952)
Degree Days  
Heating Degree Days 16    
Moisture  
Dew Point 35 °F    
Average Humidity 59    
Maximum Humidity 86    
Minimum Humidity 35    
Precipitation  
Precipitation 0.00 in - - ()
Sea Level Pressure  
Sea Level Pressure 30.03 in    
Wind  
Wind Speed 7 mph (SSW)    
Max Wind Speed 18 mph    
Max Gust Speed 26 mph    
Visibility 10 miles    
Events      
Averages and records for this station are not official NWS values.
T = Trace of Precipitation, MM = Missing Value Source: NWS Daily Summary

Daily Weather History Graph

Daily Weather History Graph

Search for Another Location

Airport or City:

Trip Planner

Search our weather history database for the weather conditions in past years. The results will help you decide how hot, cold, wet, or windy it might be!

Date:

Astronomy

Oct. 09, 2012 Rise Set
Actual Time 7:43 AM EDT 7:05 PM EDT
Civil Twilight 7:15 AM EDT 7:33 PM EDT
Nautical Twilight 6:43 AM EDT 8:05 PM EDT
Astronomical Twilight 6:11 AM EDT 8:37 PM EDT
Moon 1:15 AM EDT (10/9) 3:35 PM EDT (10/9)
Length of Visible Light 12h 17m
Length of Day
11h 22m
Last Quarter, 37% of the Moon is Illuminated
Oct 9
Last Quarter
Oct 15
New
Oct 21
First Quarter
Oct 29
Full
Nov 6
Last Quarter

Hourly Weather History & Observations

Time (EDT) Temp. Windchill Dew Point Humidity Pressure Visibility Wind Dir Wind Speed Gust Speed Precip Events Conditions
12:53 AM 39.0 °F 35.7 °F 30.0 °F 70% 30.15 in 10.0 mi South 4.6 mph - N/A   Clear
1:53 AM 37.9 °F 35.5 °F 30.9 °F 76% 30.14 in 10.0 mi South 3.5 mph - N/A   Clear
2:53 AM 37.9 °F 35.5 °F 30.9 °F 76% 30.15 in 10.0 mi South 3.5 mph - N/A   Clear
4:53 AM 37.9 °F 33.5 °F 33.1 °F 83% 30.12 in 10.0 mi South 5.8 mph - N/A   Clear
5:53 AM 37.9 °F 33.5 °F 34.0 °F 86% 30.13 in 9.0 mi South 5.8 mph - N/A   Clear
6:53 AM 37.9 °F 34.4 °F 34.0 °F 86% 30.13 in 9.0 mi South 4.6 mph - N/A   Clear
8:53 AM 43.0 °F 38.8 °F 37.9 °F 82% 30.13 in 9.0 mi South 6.9 mph - N/A   Clear
9:53 AM 48.0 °F - 37.9 °F 68% 30.12 in 10.0 mi SSW 9.2 mph - N/A   Clear
10:53 AM 53.1 °F - 37.9 °F 57% 30.11 in - North - - N/A   Unknown
11:53 AM - - - N/A% 30.08 in 10.0 mi SW 15.0 mph 19.6 mph N/A   Unknown
12:53 PM 59.0 °F - 37.0 °F 44% 30.07 in 10.0 mi SSW 15.0 mph 24.2 mph N/A   Clear
1:53 PM 61.0 °F - 35.1 °F 38% 30.02 in 10.0 mi SW 13.8 mph 26.5 mph N/A   Clear
2:53 PM 62.1 °F - 35.1 °F 37% 29.99 in 10.0 mi SSW 13.8 mph 21.9 mph N/A   Clear
3:53 PM 62.1 °F - 35.1 °F 37% 29.97 in 10.0 mi SSW 18.4 mph 24.2 mph N/A   Clear
4:53 PM 62.1 °F - 34.0 °F 35% 29.95 in 10.0 mi SSW 10.4 mph 23.0 mph N/A   Clear
5:53 PM 61.0 °F - 34.0 °F 36% 29.94 in 10.0 mi SSW 13.8 mph - N/A   Clear
6:53 PM 57.9 °F - 35.1 °F 42% 29.93 in 10.0 mi SSW 6.9 mph - N/A   Clear
7:53 PM 55.0 °F - 36.0 °F 49% 29.94 in 10.0 mi SSW 5.8 mph - N/A   Clear
8:53 PM 52.0 °F - 37.0 °F 57% 29.94 in 10.0 mi South 6.9 mph - N/A   Clear
9:53 PM 51.1 °F - 37.0 °F 59% 29.92 in 10.0 mi South 5.8 mph - N/A   Clear
10:53 PM 48.9 °F - 37.9 °F 66% 29.92 in 10.0 mi South 5.8 mph - N/A   Clear
11:53 PM 51.1 °F - 39.0 °F 63% 29.89 in 10.0 mi SSW 10.4 mph - N/A   Clear